CZ-3B DEB, 40158

Orbit data source: Space-Track

CZ-3B DEB, 40158 is space debris in HEO originally from a launch on Sat, 04 Sep 2010 UTC launched from the Xichang Space Center, China (XSC). Debris objects in space refer to the collection of defunct objects orbiting the Earth. Examples of debris include non-operational satellites, rocket bodies, and fragments generated from explosions, collisions, or faulty payload assembly.

Loading next visibility...
Identifier
40158, 2010-042K
Orbit
HEO
Country
Flag of CNCN / PRC
Related business
Manufacturer
CALT
Mission
Spacecraft
Bus & Motor
Unknown
Mass
Unknown
Launch date (UTC)
2010-09-04 (16 years ago)
Launch vehicle
Unknown
Launch site
Xichang Space Center, China (XSC)
Object type
Payload
Rocket body
Debris
Shape & HBR
Unknown shape, 0.2 m
Radar Cross Section
Medium (>0.1 m² and <1 m²)

Expand to show TLE details & history
Last TLE update: 4 days ago

TLE from 4 days ago
0 CZ-3B DEB
1 40158U 10042K   26169.48783073  .00000001  00000-0  00000+0 0  9999
2 40158  25.3688 215.2163 7354484  80.6027 353.2018  1.88759401 86773
Epoch: 2026-06-18T11:42Z
TLE epoch observation values (Epoch: 2026-06-18T11:42:28.575Z)
Latitude
10.18669°
Longitude
155.17028°
Altitude
2,606.537 km
Speed
8.621 km/s
True Right ascension
15h 50m 04s
True Declination
10° 08' 21"
Sunlit
Object was in full shadow at epoch
Visualization orbit readout
Latitude
Unknown
Longitude
Unknown
Altitude
Unknown
Speed
Unknown
Apparent Right ascension
Unknown
Apparent Declination
Unknown
Sunlit
N/A
Visualization observer readout
Local Sidereal Time
21:39:39
Azimuth
Unknown
Elevation
Unknown
Doppler factor
Unknown
Orbital elements
Apogee altitude
41,624.637 km
Perigee altitude
939.402 km
Semi-major axis
27,660.157 km
Eccentricity
0.73545
Inclination
25.3688°
RAAN
215.2163°
Arg. of periapsis
80.6027°
True anomaly
303.26721°
Mean anomaly
353.2018°
Eccentric anomaly
336.19136°
Mean motion
0.4718 °/min
Orbital period
763.03 mins
BSTAR
0
Loading maneuver chart data...
Computing Atmospheric mass density...
Loading historical data...
Loading historical data...
Loading historical data...
Loading historical data...
Loading historical data...
Loading historical data...
Loading historical data...

Documentation

Showing up to 5 results
|